TimePDT,TemperatureF,Dew PointF,Humidity,Sea Level PressureIn,VisibilityMPH,Wind Direction,Wind SpeedMPH,Gust SpeedMPH,PrecipitationIn,Events,Conditions,WindDirDegrees,DateUTC
12:53 AM,64.9,45.0,48,29.84,10.0,SW,6.9,-,N/A,,Overcast,230,2013-05-06 07:53:00
1:53 AM,64.9,44.1,47,29.85,10.0,SSW,8.1,-,N/A,,Overcast,210,2013-05-06 08:53:00
2:53 AM,64.0,44.1,48,29.85,10.0,SW,11.5,-,N/A,,Overcast,230,2013-05-06 09:53:00
3:53 AM,64.0,43.0,46,29.85,10.0,SW,6.9,-,N/A,,Overcast,230,2013-05-06 10:53:00
4:53 AM,64.0,43.0,46,29.85,10.0,WSW,6.9,-,N/A,,Overcast,240,2013-05-06 11:53:00
5:53 AM,63.0,44.1,50,29.86,10.0,Calm,Calm,-,N/A,,Overcast,0,2013-05-06 12:53:00
6:53 AM,63.0,45.0,52,29.87,10.0,East,3.5,-,N/A,,Overcast,100,2013-05-06 13:53:00
7:53 AM,64.9,45.0,48,29.87,10.0,ENE,3.5,-,N/A,,Overcast,70,2013-05-06 14:53:00
8:53 AM,66.9,44.1,44,29.88,10.0,Calm,Calm,-,N/A,,Scattered Clouds,0,2013-05-06 15:53:00
9:53 AM,70.0,43.0,38,29.88,10.0,NNE,4.6,-,N/A,,Mostly Cloudy,20,2013-05-06 16:53:00
10:53 AM,72.0,43.0,35,29.89,10.0,SW,9.2,-,N/A,,Mostly Cloudy,230,2013-05-06 17:53:00
11:53 AM,73.9,43.0,33,29.88,10.0,Variable,6.9,-,N/A,,Scattered Clouds,0,2013-05-06 18:53:00
12:53 PM,73.9,42.1,32,29.87,10.0,Variable,6.9,16.1,N/A,,Scattered Clouds,0,2013-05-06 19:53:00
1:53 PM,75.9,43.0,31,29.86,10.0,South,10.4,-,N/A,,Mostly Cloudy,190,2013-05-06 20:53:00
2:53 PM,75.9,41.0,29,29.85,10.0,Calm,Calm,-,N/A,,Mostly Cloudy,0,2013-05-06 21:53:00
3:53 PM,75.0,44.1,33,29.83,10.0,SSW,16.1,21.9,N/A,,Mostly Cloudy,210,2013-05-06 22:53:00
4:53 PM,75.9,44.1,32,29.83,10.0,SW,8.1,18.4,N/A,,Mostly Cloudy,230,2013-05-06 23:53:00
5:53 PM,73.9,44.1,34,29.83,10.0,SW,11.5,-,N/A,,Mostly Cloudy,230,2013-05-07 00:53:00
6:53 PM,73.9,43.0,33,29.83,10.0,WSW,10.4,-,N/A,,Mostly Cloudy,240,2013-05-07 01:53:00
7:53 PM,72.0,43.0,35,29.86,10.0,SW,9.2,-,N/A,,Mostly Cloudy,230,2013-05-07 02:53:00
8:53 PM,69.1,43.0,39,29.90,10.0,WNW,11.5,-,N/A,,Mostly Cloudy,300,2013-05-07 03:53:00
9:53 PM,68.0,43.0,40,29.93,10.0,NW,13.8,-,N/A,,Mostly Cloudy,320,2013-05-07 04:53:00
10:53 PM,66.0,48.0,52,29.94,10.0,North,6.9,-,N/A,,Overcast,350,2013-05-07 05:53:00
11:53 PM,64.9,48.9,56,29.96,10.0,North,5.8,-,0.00,Rain,Light Rain,10,2013-05-07 06:53:00